{"data":{"norad_id":58628,"epoch":"2026-09-16T11:52:49.067904Z","epoch_age_seconds":495834,"freshness":"STALE","line1":"1 58628U 23203L   26259.49501236  .00000076  00000+0  12277-4 0  9998","line2":"2 58628  43.0007  69.4319 0000993 273.8127  86.2611 15.27586892152744","mean_motion":15.27586892,"eccentricity":9.93e-5,"inclination_deg":43.0007,"raan_deg":69.4319,"arg_perigee_deg":273.8127,"mean_anomaly_deg":86.2611,"bstar":1.2277e-5,"rev_number":15274,"period_min":94.266323411212,"perigee_km":482.34714525978,"apogee_km":483.70977271994,"semimajor_km":6861.1654589899,"source":"CELESTRAK","updated_at":"2026-09-21T09:00:33.923596Z"}}